星链-11303 (STARLINK-11303)

导读 | 星芒AI

STARLINK-11303 是 SpaceX Starlink 卫星互联网项目中的一颗低轨卫星,属于第53批部署的星链卫星之一。该卫星于2023年发射,旨在为全球提供高速、低延迟的宽带互联网服务。它运行在约550公里高的近地轨道,采用先进通信技术,支持多用户同时接入。Starlink 项目致力于改善偏远地区网络覆盖,推动全球数字连接。STARLINK-11303 的运行有助于增强 Starlink 网络的稳定性和服务能力。

基本信息
目录编号:
62096
目录名称:
STARLINK-11303
国际标识:
2024-220J
轨道中心:
EARTH
卫星名称:
星链-11303
卫星全名:
星链-11303 (STARLINK-11303)
卫星状态:
在轨 (已飞行385 天)
发射日期:
2024-11-25 UTC
国别 :
美国 (US)
星等 :
--
轨道信息
数据来源 国际轨道数据
星历时间: 2025-12-15T06:05:50+0800
20小时前
查看轨道信息
半长轴: 6734.385km
偏心率: 0.0002531
轨道倾角: 43.001°
近地点辐角 256.610°
升交点赤经 193.815°
平近点角 103.449°
近地点: 354.545km
远地点: 357.955km
周期: 91.666分钟
每日圈数: 15.709265
详细信息
固有亮度:
5
最大亮度:
2.5
卫星平台:
Starlink V1.0
覆盖范围:
全球
运营商:
太空探索技术公司
运营商所在国:
美国
制造商(研发单位):
太空探索技术公司
制造商所在国:
美国
使用方式:
暂无
卫星简介
Starlink 计划是 SpaceX 推出的全球卫星互联网项目,通过发射低轨道卫星,为全球尤其是偏远地区提供高速、低延迟的互联网服务。自 2019 年起,Starlink 已部署数千颗卫星,旨在缩小全球数字鸿沟,推动互联网普及。该项目还为军事、航空等行业提供通信支持,带来广泛经济效益。
2D轨道图
3D轨道图
轨道高度分析图
轨道倾角分析图
轨道综合分析图
查看轨道综合分析图